P/2015 F1 ( PanSTARRS )

Japanese version
Home page
Updated on March 3, 2018

---------------------------------------------------------------------

* Profile

Discovery Date March 21, 2015
Magnitude 19.1 mag
Discoverer Pan-STARRS 1 telescope (Haleakala)

* Pictures

* Orbital Elements

Epoch 2015 Feb. 27.0 TT = JDT 2457080.5
T 2015 Mar. 14.93020 TT                                 MPCW
q   2.5416132            (2000.0)            P               Q
n   0.14917979     Peri.  187.13186     -0.67488674     +0.73723880
a   3.5209733      Node    40.43027     -0.67459034     -0.59896640
e   0.2781504      Incl.    2.80446     -0.29909155     -0.31259911
P   6.61
From 195 observations 2015 Jan. 24-Aug. 16, mean residual 0".5.

* Magnitudes Graph

        m1 = 11.8 + 5 log d + 10.0 log r

---------------------------------------------------------------------

The orbital elements are published on M.P.E.C. 2018-D91.
The magnitudes graphs are made with Comet for Windows.

---------------------------------------------------------------------

Copyright(C) Seiichi Yoshida (comet@aerith.net). All rights reserved.